Flag Weather past 2 weeks in Escuintla, Guatemala

Now
59 °F

Scattered clouds.


Feels Like: 55 °F
Forecast: 64 / 88 °F
Wind: 23 mph from North

Location: Guatemala Aeropuertola Aurora

Current Time: Nov 28, 2014 at 10:07:41 AM

Latest Report: Nov 28, 2014 at 9:00 AM


Visibility: N/A

Pressure: 30.39 "Hg

Humidity: 68%

Dew point: 48 °F

Location of EscuintlaLocation

Historic Weather in Escuintla — Graph

°F

Escuintla temperature yesterday

Maximum temperature yesterday: 66 °F (at 1:00 PM)
Minimum temperature yesterday: 54 °F (at 8:00 PM)
Average temperature yesterday: 58 °F

Past Weeks' High & Low Weather Summary

 TemperatureHumidityPressure
High81 °F (Nov 23, 1:00 PM)100% (Nov 14, 3:00 AM)30.39 "Hg (Nov 14, 3:00 AM)
Low54 °F (Nov 27, 8:00 PM)46% (Nov 14, 11:00 AM)30.12 "Hg (Nov 23, 3:00 PM)
Average65 °F79%30.29 "Hg
* Reported Nov 13 9:00 AM — Nov 28 9:00 AM, Escuintla, Weather by CustomWeather, © 2014

Note: Actual official high and low records may vary slightly from our data, if they occured in-between our weather recording intervals... More about our weather records

Advertising

Escuintla weather history for previous 24 hours

 ConditionsComfort  
Time TempWeatherWind HumidityBarometerVisibility
9:00 AM
Nov 28
59 °FScattered clouds.23 mph68%30.39 "HgN/A
8:00 AM57 °FScattered clouds.21 mph72%30.39 "HgN/A
7:00 AM55 °FPartly sunny.23 mph77%30.36 "HgN/A
6:00 AM54 °FPassing clouds.23 mph82%30.33 "HgN/A
5:00 AM54 °FClear.18 mph82%30.33 "Hg10 mi
4:00 AM54 °FClear.18 mph82%30.33 "Hg10 mi
3:00 AM54 °FClear.21 mph77%30.33 "Hg10 mi
2:00 AM54 °FClear.23 mph77%30.33 "Hg10 mi
1:00 AM54 °FClear.25 mph82%30.36 "Hg10 mi
12:00 AM54 °FClear.25 mph82%30.39 "Hg10 mi
11:00 PM
Nov 27
54 °FClear.23 mph77%30.39 "Hg10 mi
10:00 PM54 °FClear.25 mph77%30.39 "Hg10 mi
9:00 PM55 °FClear.23 mph72%30.39 "Hg10 mi
8:00 PM54 °FPassing clouds.21 mph82%30.36 "HgN/A
7:00 PM55 °FPassing clouds.23 mph77%30.33 "HgN/A
6:00 PM55 °FPassing clouds.25 mph77%30.33 "HgN/A
5:00 PM59 °FScattered clouds.16 mph68%30.30 "HgN/A
4:00 PM61 °FRefreshingly cool.N/A55%30.30 "HgN/A
3:00 PM63 °FPassing clouds.18 mph52%30.30 "HgN/A
2:00 PM64 °FScattered clouds.18 mph52%30.30 "HgN/A
1:00 PM66 °FPassing clouds.18 mph56%30.33 "HgN/A
12:00 PM64 °FScattered clouds.18 mph60%30.36 "HgN/A
11:00 AM64 °FScattered clouds.16 mph60%30.36 "HgN/A
10:00 AM61 °FScattered clouds.16 mph72%30.39 "HgN/A
Weather by CustomWeather, © 2014

See weather overviewHow to use our weather pages